| time (UTC) | temp C | wind direction | speed KPH | gust KPH | rain 1hr cm | rain 24hr cm | rain mn cm | humidity % | barometer mb |
| 20260507135704 | 11 | 209 | 9.7 | 19.3 | 0.00 | 0.13 | 0.13 | 88 | 1010.2 |
| 20260507135204 | 11 | 216 | 11.3 | 19.3 | 0.05 | 0.13 | 0.13 | 88 | 1010.2 |
| 20260507134704 | 11 | 217 | 11.3 | 29.0 | 0.05 | 0.13 | 0.13 | 89 | 1010.2 |
| 20260507134203 | 11 | 207 | 8.0 | 14.5 | 0.05 | 0.13 | 0.13 | 89 | 1010.2 |
| 20260507133704 | 11 | 210 | 11.3 | 19.3 | 0.05 | 0.13 | 0.13 | 89 | 1010.2 |
| 20260507133204 | 11 | 215 | 8.0 | 19.3 | 0.05 | 0.13 | 0.13 | 89 | 1010.2 |
| 20260507132703 | 11 | 202 | 12.9 | 20.9 | 0.05 | 0.13 | 0.13 | 89 | 1010.3 |
| 20260507132204 | 11 | 191 | 11.3 | 19.3 | 0.05 | 0.13 | 0.13 | 89 | 1010.2 |
| 20260507131704 | 11 | 211 | 9.7 | 19.3 | 0.05 | 0.13 | 0.13 | 89 | 1010.3 |
| 20260507131204 | 10 | 211 | 8.0 | 14.5 | 0.05 | 0.13 | 0.13 | 89 | 1010.4 |
| 20260507130704 | 10 | 192 | 9.7 | 16.1 | 0.05 | 0.13 | 0.13 | 89 | 1010.3 |
| 20260507130203 | 10 | 209 | 9.7 | 19.3 | 0.05 | 0.13 | 0.13 | 87 | 1010.3 |
| 20260507125704 | 10 | 205 | 14.5 | 24.1 | 0.05 | 0.13 | 0.13 | 87 | 1010.5 |
| 20260507125203 | 10 | 203 | 16.1 | 27.4 | 0.03 | 0.08 | 0.08 | 86 | 1010.4 |
| 20260507124704 | 10 | 203 | 11.3 | 19.3 | 0.03 | 0.08 | 0.08 | 87 | 1010.4 |
| 20260507124204 | 11 | 197 | 11.3 | 22.5 | 0.03 | 0.08 | 0.08 | 87 | 1010.3 |
| 20260507123704 | 11 | 194 | 11.3 | 20.9 | 0.03 | 0.08 | 0.08 | 86 | 1010.3 |
| 20260507123204 | 11 | 194 | 9.7 | 19.3 | 0.03 | 0.08 | 0.08 | 86 | 1010.3 |
| 20260507122705 | 11 | 215 | 9.7 | 14.5 | 0.03 | 0.08 | 0.08 | 88 | 1010.3 |
| 20260507122204 | 11 | 199 | 9.7 | 19.3 | 0.03 | 0.08 | 0.08 | 88 | 1010.3 |
| 20260507121704 | 10 | 211 | 11.3 | 20.9 | 0.05 | 0.08 | 0.08 | 87 | 1010.3 |
| 20260507121204 | 10 | 217 | 8.0 | 16.1 | 0.08 | 0.08 | 0.08 | 88 | 1010.4 |
| 20260507120203 | 10 | 212 | 9.7 | 16.1 | 0.08 | 0.08 | 0.08 | 88 | 1010.5 |
| 20260507115703 | 10 | 230 | 8.0 | 16.1 | 0.05 | 0.05 | 0.05 | 87 | 1010.6 |
| 20260507115204 | 10 | 207 | 11.3 | 19.3 | 0.05 | 0.05 | 0.05 | 87 | 1010.5 |
| 20260507114204 | 10 | 203 | 9.7 | 14.5 | 0.05 | 0.05 | 0.05 | 86 | 1010.6 |
| 20260507113704 | 10 | 212 | 11.3 | 20.9 | 0.05 | 0.05 | 0.05 | 86 | 1010.6 |
| 20260507113204 | 10 | 200 | 9.7 | 16.1 | 0.05 | 0.05 | 0.05 | 86 | 1010.6 |
| 20260507112703 | 10 | 220 | 6.4 | 9.7 | 0.05 | 0.05 | 0.05 | 85 | 1010.5 |
| 20260507112204 | 10 | 216 | 8.0 | 16.1 | 0.05 | 0.05 | 0.05 | 83 | 1010.6 |
| 20260507111704 | 10 | 220 | 8.0 | 11.3 | 0.03 | 0.03 | 0.03 | 82 | 1010.6 |
| 20260507110204 | 10 | 261 | 9.7 | 19.3 | 0.00 | 0.00 | 0.00 | 81 | 1010.4 |
| 20260507105704 | 10 | 234 | 8.0 | 19.3 | 0.00 | 0.00 | 0.00 | 81 | 1010.4 |
| 20260507105204 | 10 | 236 | 11.3 | 19.3 | 0.00 | 0.00 | 0.00 | 81 | 1010.4 |
| 20260507104703 | 10 | 221 | 11.3 | 24.1 | 0.00 | 0.00 | 0.00 | 80 | 1010.4 |
| 20260507104204 | 11 | 240 | 11.3 | 19.3 | 0.00 | 0.00 | 0.00 | 78 | 1010.3 |
| 20260507103703 | 11 | 229 | 11.3 | 20.9 | 0.00 | 0.00 | 0.00 | 78 | 1010.4 |
| 20260507103204 | 11 | 236 | 16.1 | 27.4 | 0.00 | 0.00 | 0.00 | 76 | 1010.3 |
| 20260507102703 | 11 | 231 | 11.3 | 24.1 | 0.00 | 0.00 | 0.00 | 76 | 1010.2 |
| 20260507102204 | 11 | 193 | 16.1 | 24.1 | 0.00 | 0.00 | 0.00 | 75 | 1010.1 |
| 20260507101703 | 12 | 208 | 14.5 | 25.7 | 0.00 | 0.00 | 0.00 | 76 | 1010.0 |
| 20260507101203 | 12 | 176 | 19.3 | 27.4 | 0.00 | 0.00 | 0.00 | 75 | 1010.0 |
| 20260507100204 | 11 | 202 | 14.5 | 27.4 | 0.00 | 0.00 | 0.00 | 77 | 1010.2 |
| 20260507095703 | 11 | 212 | 11.3 | 22.5 | 0.00 | 0.00 | 0.00 | 78 | 1010.2 |
| 20260507095204 | 11 | 201 | 9.7 | 24.1 | 0.00 | 0.00 | 0.00 | 78 | 1010.2 |
| 20260507094704 | 11 | 204 | 14.5 | 20.9 | 0.00 | 0.00 | 0.00 | 78 | 1010.2 |
| 20260507094204 | 11 | 197 | 14.5 | 19.3 | 0.00 | 0.00 | 0.00 | 78 | 1010.2 |
| 20260507093204 | 11 | 222 | 14.5 | 25.7 | 0.00 | 0.00 | 0.00 | 79 | 1010.3 |
| 20260507092703 | 11 | 210 | 14.5 | 20.9 | 0.00 | 0.00 | 0.00 | 80 | 1010.3 |
| 20260507092203 | 10 | 228 | 9.7 | 20.9 | 0.00 | 0.00 | 0.00 | 80 | 1010.3 |
| 20260507091704 | 10 | 212 | 14.5 | 22.5 | 0.00 | 0.00 | 0.00 | 80 | 1010.4 |
| 20260507091204 | 10 | 202 | 16.1 | 25.7 | 0.00 | 0.00 | 0.00 | 80 | 1010.4 |
| 20260507090704 | 10 | 206 | 14.5 | 27.4 | 0.00 | 0.00 | 0.00 | 81 | 1010.2 |
| 20260507090203 | 10 | 201 | 12.9 | 27.4 | 0.00 | 0.00 | 0.00 | 81 | 1010.3 |
| 20260507085704 | 10 | 219 | 14.5 | 22.5 | 0.00 | 0.00 | 0.00 | 81 | 1010.2 |
| 20260507085203 | 10 | 205 | 16.1 | 25.7 | 0.00 | 0.00 | 0.00 | 81 | 1010.3 |
| 20260507084704 | 10 | 190 | 14.5 | 25.7 | 0.00 | 0.00 | 0.00 | 81 | 1010.3 |
| 20260507084204 | 10 | 207 | 16.1 | 25.7 | 0.00 | 0.00 | 0.00 | 81 | 1010.3 |
| 20260507083705 | 10 | 209 | 14.5 | 24.1 | 0.00 | 0.00 | 0.00 | 81 | 1010.3 |
| 20260507083203 | 10 | 216 | 9.7 | 22.5 | 0.00 | 0.00 | 0.00 | 82 | 1010.3 |
| 20260507082703 | 9 | 195 | 11.3 | 19.3 | 0.00 | 0.00 | 0.00 | 82 | 1010.4 |
| 20260507082203 | 9 | 206 | 11.3 | 19.3 | 0.00 | 0.00 | 0.00 | 82 | 1010.3 |
| 20260507081203 | 9 | 211 | 19.3 | 29.0 | 0.00 | 0.00 | 0.00 | 82 | 1010.5 |
| 20260507080203 | 9 | 203 | 11.3 | 19.3 | 0.00 | 0.00 | 0.00 | 82 | 1010.5 |
| 20260507075704 | 9 | 207 | 14.5 | 25.7 | 0.00 | 0.00 | 0.00 | 81 | 1010.5 |
| 20260507075203 | 9 | 204 | 14.5 | 22.5 | 0.00 | 0.00 | 0.00 | 81 | 1010.3 |
| 20260507074704 | 10 | 212 | 11.3 | 22.5 | 0.00 | 0.00 | 0.00 | 82 | 1010.3 |
| 20260507074204 | 9 | 207 | 14.5 | 22.5 | 0.00 | 0.00 | 0.00 | 82 | 1010.4 |
| 20260507073704 | 9 | 206 | 11.3 | 22.5 | 0.00 | 0.00 | 0.00 | 83 | 1010.4 |
| 20260507073203 | 8 | 210 | 11.3 | 24.1 | 0.00 | 0.00 | 0.00 | 83 | 1010.4 |
| 20260507072703 | 8 | 208 | 8.0 | 19.3 | 0.00 | 0.00 | 0.00 | 83 | 1010.4 |
| 20260507072203 | 8 | 216 | 9.7 | 16.1 | 0.00 | 0.00 | 0.00 | 84 | 1010.4 |
| 20260507071704 | 8 | 206 | 11.3 | 20.9 | 0.00 | 0.00 | 0.00 | 84 | 1010.4 |
| 20260507071204 | 8 | 210 | 8.0 | 16.1 | 0.00 | 0.00 | 0.00 | 84 | 1010.3 |
| 20260507070703 | 8 | 203 | 9.7 | 16.1 | 0.00 | 0.00 | 0.00 | 84 | 1010.4 |
| 20260507070204 | 8 | 217 | 6.4 | 11.3 | 0.00 | 0.00 | 0.00 | 84 | 1010.4 |
| 20260507065704 | 8 | 219 | 8.0 | 14.5 | 0.00 | 0.00 | 0.00 | 84 | 1010.4 |
| 20260507065203 | 7 | 216 | 6.4 | 11.3 | 0.00 | 0.00 | 0.00 | 84 | 1010.4 |